Regional Weather Roundup
Issued by NWS Northern Indiana

Home | Current Version | Previous Version | Text Only | Print | Product List | Glossary On
Versions: 1 2 3 4 5 6 7 8 9 10 11 12 13 14 15 16 17 18 19 20 21 22 23 24 25 26 27 28 29 30 31 32 33 34 35 36 37 38 39 40 41 42 43 44 45 46 47 48 49 50
504
ASUS43 KIWX 281910
RWRIWX

KIWX WEATHER ROUNDUP
NATIONAL WEATHER SERVICE NORTHERN INDIANA
300 PM EDT FRI APR 28 2017

NOTE: "FAIR" INDICATES FEW OR NO CLOUDS BELOW 12,000 FEET WITH NO
SIGNIFICANT WEATHER AND/OR OBSTRUCTIONS TO VISIBILITY.

* THESE STATIONS ARE NOT UNDER NWS QUALITY CONTROL. THEY ALSO MAY NOT
  REPORT WEATHER SUCH AS PRECIPITATION OR FOG.

INZ001>027-282000-
NORTHERN INDIANA

CITY           SKY/WX    TMP DP  RH WIND       PRES   REMARKS
GARY*          CLOUDY    59  43  55 SE8       29.92F
VALPARAISO     CLOUDY    60  47  61 E8        29.90F
MICHIGAN CITY* CLOUDY    55  45  67 SE3       29.94F
LAPORTE*       CLOUDY    57  46  64 SE9       29.94S
KNOX*          PTSUNNY   57  23  26 SE12      29.92S
SOUTH BEND     CLOUDY    57  43  59 S9        29.95F
ELKHART*       CLOUDY    59  41  51 S12       29.95F
GOSHEN         CLOUDY    59  40  49 S8        29.96F
MONTICELLO*    LGT RAIN  56  47  71 S9        29.95R
LOGANSPORT*    CLOUDY    55  46  71 SE13      29.98R
ROCHESTER*     CLOUDY    61  46  59 SE15      29.97R
WARSAW*        CLOUDY    57  43  58 SE6       29.96S
ANGOLA*        SUNNY     57  48  72 S9        29.98S
FORT WAYNE     CLOUDY    57  47  69 S7        29.98F
HUNTINGTON*    CLOUDY    56  49  77 S10       30.00R
PERU/GRISSOM   CLOUDY    55  51  85 S14       29.96R
MARION*        CLOUDY    54  48  82 SE8       29.99R

$$
INZ028>050-282000-
CENTRAL INDIANA

CITY           SKY/WX    TMP DP  RH WIND       PRES   REMARKS
LAFAYETTE      RAIN      54  50  86 SE6       29.94S FOG
KOKOMO*        LGT RAIN  54  49  83 SE10G18   29.98R
MUNCIE*        CLOUDY    57  49  74 VRB6      30.00R
INDIANAPOLIS   CLOUDY    59  49  69 E9        29.93F

$$
MIZ043>046-050>051-056>058-064>065-071>073-077>080-282000-
SOUTHWEST LOWER MICHIGAN

CITY           SKY/WX    TMP DP  RH WIND       PRES   REMARKS
BATTLE CREEK   CLOUDY    60  43  53 SW13      29.98R
BENTON HARBOR  CLOUDY    56  44  64 CALM      29.95F
COLDWATER*     CLOUDY    60  42  51 S6        29.98F
HILLSDALE*     PTSUNNY   59  43  55 S12       29.99S
HOLLAND        CLOUDY    55  44  66 W9        29.98S
GRAND RAPIDS   CLOUDY    60  46  59 SW13      29.96S
KALAMAZOO      CLOUDY    59  42  53 S12       29.98R
STURGIS*       CLOUDY    59  44  56 S13       29.97S
THREE RIVERS*  CLOUDY    58  43  57 S8        29.98R

$$
OHZ001>008-015>018-024>025-282000-
NORTHWEST OHIO

CITY           SKY/WX    TMP DP  RH WIND       PRES   REMARKS
WAUSEON*       PTSUNNY   61  41  48 SW12      30.00S
DEFIANCE       CLOUDY    57  43  59 S9        29.99F
FINDLAY        LGT RAIN  60  46  59 S13       30.01R
TOLEDO EXPRESS CLOUDY    59  41  51 S9        30.00S
TOLEDO METCALF CLOUDY    61  44  53 SW10      30.01S
LIMA           CLOUDY    56  49  77 S9        30.01F

$$
AND FOR LAKE MICHIGAN COASTAL AND OPEN LAKE BUOY OBSERVATIONS

STATION/POSITION TEMP    WIND        PRES    VSBY  WAVE
                 AIR SEA DIR/SP/G                  HT/PER
                 (F)     (DEG/KT/KT) (MB)    (MI)  (FT/S)
CALUMET HARBOR    48      30/  6/  8 1012.6F
MICHIGAN CITY     57     100/  6/  8   N/A
BURNS HARBOR      57     110/ 10/ 13 1013.2F
SOUTH LAKE BUOY   43 42  130/  2/  4 1015.5          1
4 MI NW BRIDGMAN  49 48   50/  8/  8 1014.4          1
MICHIGAN CITY     51 46                N/A           1

$$
&&




USA.gov is the U.S. government's official web portal to all federal, state and local government web resources and services.